Location: Mascot Post Office (historical)
(40.2645°N, 99.5462°W)
Time: 02:43:38
(UTC+00:00)

IDEFIX/ARIANE 42P - Pass Details

Date: 14 July 2020
Orbit: 784 x 804 km, 98.4° (Epoch: 14 August)

Event Time Altitude Azimuth Distance (km) Brightness Sun altitude
Rises 10:17:58 0° 8° (N) 3,289 6.6 -10.7°
Reaches altitude 10° 10:20:20 10° 4° (N) 2,354 5.7 -10.3°
Maximum altitude 10:25:22 54° 288° (WNW) 953 2.8 -9.6°
Drops below altitude 10° 10:30:22 10° 212° (SSW) 2,335 4.4 -8.8°
Enters shadow 10:30:35 - 211° (SSW) 2,418 4.5 -8.8°
